Time,TemperatureF,DewpointF,PressureIn,WindDirection,WindDirectionDegrees,WindSpeedMPH,WindSpeedGustMPH,Humidity,HourlyPrecipIn,Conditions,Clouds,dailyrainin,SoftwareType,DateUTC
2013-08-09 00:13:00,72.2,71.0,29.96,SSE,163,0.0,2.0,97,0.00,,,0.00,weatherlink.com 1.10,2013-08-09 04:13:00,
2013-08-09 00:28:00,72.3,71.0,29.95,South,174,1.0,3.0,97,0.00,,,0.00,weatherlink.com 1.10,2013-08-09 04:28:00,
2013-08-09 00:43:00,72.4,72.0,29.95,South,174,0.0,1.0,97,0.00,,,0.00,weatherlink.com 1.10,2013-08-09 04:43:00,
2013-08-09 00:58:00,72.4,72.0,29.94,SSE,159,0.0,2.0,97,0.00,,,0.00,weatherlink.com 1.10,2013-08-09 04:58:00,
2013-08-09 01:13:00,72.4,72.0,29.94,SSE,157,0.0,2.0,97,0.00,,,0.00,weatherlink.com 1.10,2013-08-09 05:13:00,
2013-08-09 01:28:00,72.4,72.0,29.94,SSE,157,0.0,0.0,97,0.00,,,0.00,weatherlink.com 1.10,2013-08-09 05:28:00,
2013-08-09 01:43:00,72.5,72.0,29.93,SSE,157,0.0,0.0,97,0.00,,,0.00,weatherlink.com 1.10,2013-08-09 05:43:00,
2013-08-09 01:58:00,72.6,72.0,29.93,SSE,157,0.0,1.0,98,0.00,,,0.00,weatherlink.com 1.10,2013-08-09 05:58:00,
2013-08-09 02:13:00,72.7,72.0,29.93,SSE,157,0.0,0.0,97,0.00,,,0.00,weatherlink.com 1.10,2013-08-09 06:13:00,
2013-08-09 02:28:00,72.7,72.0,29.92,SSE,157,0.0,2.0,97,0.00,,,0.00,weatherlink.com 1.10,2013-08-09 06:28:00,
2013-08-09 02:43:00,72.8,72.0,29.92,SSE,157,0.0,0.0,98,0.00,,,0.00,weatherlink.com 1.10,2013-08-09 06:43:00,
2013-08-09 02:58:00,73.1,73.0,29.91,South,182,0.0,2.0,98,0.00,,,0.00,weatherlink.com 1.10,2013-08-09 06:58:00,
2013-08-09 03:13:00,73.2,73.0,29.91,SSE,150,0.0,2.0,98,0.00,,,0.00,weatherlink.com 1.10,2013-08-09 07:13:00,
2013-08-09 03:28:00,73.4,73.0,29.90,SSE,154,0.0,2.0,97,0.00,,,0.00,weatherlink.com 1.10,2013-08-09 07:28:00,
2013-08-09 03:43:00,73.5,73.0,29.90,SSE,155,0.0,2.0,97,0.00,,,0.00,weatherlink.com 1.10,2013-08-09 07:43:00,
2013-08-09 03:58:00,73.7,73.0,29.90,South,173,0.0,2.0,97,0.00,,,0.00,weatherlink.com 1.10,2013-08-09 07:58:00,
2013-08-09 04:13:00,73.8,73.0,29.90,South,173,0.0,2.0,97,0.00,,,0.00,weatherlink.com 1.10,2013-08-09 08:13:00,
2013-08-09 04:28:00,73.9,73.0,29.90,South,175,0.0,2.0,97,0.00,,,0.00,weatherlink.com 1.10,2013-08-09 08:28:00,
2013-08-09 04:43:00,73.9,73.0,29.89,SSE,163,0.0,2.0,97,0.00,,,0.00,weatherlink.com 1.10,2013-08-09 08:43:00,
2013-08-09 04:58:00,74.0,73.0,29.89,SW,216,0.0,2.0,96,0.00,,,0.00,weatherlink.com 1.10,2013-08-09 08:58:00,
2013-08-09 05:13:00,74.0,73.0,29.89,South,189,0.0,5.0,96,0.00,,,0.00,weatherlink.com 1.10,2013-08-09 09:13:00,
2013-08-09 05:28:00,74.2,73.0,29.88,South,176,0.0,3.0,96,0.00,,,0.00,weatherlink.com 1.10,2013-08-09 09:28:00,
2013-08-09 05:43:00,74.4,73.0,29.88,SSE,158,0.0,3.0,96,0.00,,,0.00,weatherlink.com 1.10,2013-08-09 09:43:00,
2013-08-09 05:58:00,74.4,73.0,29.88,SSE,164,0.0,3.0,95,0.00,,,0.00,weatherlink.com 1.10,2013-08-09 09:58:00,
2013-08-09 06:13:00,74.4,73.0,29.88,SSE,160,0.0,2.0,95,0.00,,,0.00,weatherlink.com 1.10,2013-08-09 10:13:00,
2013-08-09 06:28:00,74.5,73.0,29.88,SSE,161,0.0,2.0,95,0.00,,,0.00,weatherlink.com 1.10,2013-08-09 10:28:00,
2013-08-09 06:43:00,74.5,73.0,29.88,SSE,165,0.0,3.0,95,0.00,,,0.00,weatherlink.com 1.10,2013-08-09 10:43:00,
2013-08-09 06:58:00,74.6,73.0,29.87,SE,144,0.0,2.0,95,0.00,,,0.00,weatherlink.com 1.10,2013-08-09 10:58:00,
2013-08-09 07:13:00,74.8,73.0,29.87,South,173,0.0,2.0,95,0.00,,,0.00,weatherlink.com 1.10,2013-08-09 11:13:00,
2013-08-09 07:28:00,74.9,73.0,29.86,South,187,0.0,3.0,95,0.00,,,0.00,weatherlink.com 1.10,2013-08-09 11:28:00,
2013-08-09 07:43:00,75.0,74.0,29.85,SSE,166,0.0,3.0,95,0.00,,,0.00,weatherlink.com 1.10,2013-08-09 11:43:00,
2013-08-09 07:58:00,75.4,74.0,29.85,SSE,155,0.0,2.0,94,0.00,,,0.00,weatherlink.com 1.10,2013-08-09 11:58:00,
2013-08-09 08:14:00,75.6,74.0,29.85,SSE,160,0.0,3.0,94,0.00,,,0.00,weatherlink.com 1.10,2013-08-09 12:14:00,
2013-08-09 08:29:00,75.8,74.0,29.84,South,181,0.0,3.0,94,0.00,,,0.00,weatherlink.com 1.10,2013-08-09 12:29:00,
2013-08-09 08:44:00,76.1,74.0,29.84,South,178,1.0,2.0,94,0.00,,,0.00,weatherlink.com 1.10,2013-08-09 12:44:00,
2013-08-09 08:59:00,77.1,75.0,29.83,South,180,2.0,5.0,92,0.00,,,0.00,weatherlink.com 1.10,2013-08-09 12:59:00,
2013-08-09 09:14:00,77.9,75.0,29.82,South,186,0.0,3.0,91,0.00,,,0.00,weatherlink.com 1.10,2013-08-09 13:14:00,
2013-08-09 09:29:00,78.5,75.0,29.82,SSW,202,1.0,4.0,90,0.00,,,0.00,weatherlink.com 1.10,2013-08-09 13:29:00,
2013-08-09 09:44:00,79.4,76.0,29.82,South,189,0.0,4.0,90,0.00,,,0.00,weatherlink.com 1.10,2013-08-09 13:44:00,
2013-08-09 09:59:00,79.5,76.0,29.82,SSE,165,0.0,6.0,88,0.00,,,0.00,weatherlink.com 1.10,2013-08-09 13:59:00,
2013-08-09 10:14:00,79.3,76.0,29.82,SW,226,0.0,4.0,88,0.00,,,0.00,weatherlink.com 1.10,2013-08-09 14:14:00,
2013-08-09 10:29:00,79.3,76.0,29.81,SSW,205,0.0,2.0,88,0.00,,,0.00,weatherlink.com 1.10,2013-08-09 14:29:00,
2013-08-09 10:44:00,80.2,76.0,29.81,West,271,1.0,3.0,87,0.00,,,0.00,weatherlink.com 1.10,2013-08-09 14:44:00,
2013-08-09 10:59:00,80.9,76.0,29.80,SSE,147,0.0,5.0,86,0.00,,,0.00,weatherlink.com 1.10,2013-08-09 14:59:00,
2013-08-09 11:14:00,81.8,77.0,29.80,SSE,163,0.0,6.0,84,0.00,,,0.00,weatherlink.com 1.10,2013-08-09 15:14:00,
2013-08-09 11:29:00,81.6,76.0,29.80,SSW,197,2.0,4.0,84,0.00,,,0.00,weatherlink.com 1.10,2013-08-09 15:29:00,
2013-08-09 11:44:00,82.9,77.0,29.79,WNW,292,5.0,5.0,83,0.00,,,0.00,weatherlink.com 1.10,2013-08-09 15:44:00,
2013-08-09 11:59:00,84.0,76.0,29.79,SSW,194,0.0,5.0,77,0.00,,,0.00,weatherlink.com 1.10,2013-08-09 15:59:00,
2013-08-09 12:14:00,84.1,77.0,29.79,SW,220,1.0,4.0,78,0.00,,,0.00,weatherlink.com 1.10,2013-08-09 16:14:00,
2013-08-09 12:29:00,84.8,77.0,29.79,WSW,250,1.0,5.0,77,0.00,,,0.00,weatherlink.com 1.10,2013-08-09 16:29:00,
2013-08-09 12:44:00,84.9,76.0,29.78,WSW,248,2.0,4.0,75,0.00,,,0.00,weatherlink.com 1.10,2013-08-09 16:44:00,
2013-08-09 12:59:00,84.2,76.0,29.78,NW,308,2.0,5.0,77,0.00,,,0.00,weatherlink.com 1.10,2013-08-09 16:59:00,
2013-08-09 13:14:00,84.6,76.0,29.77,WNW,303,1.0,10.0,75,0.00,,,0.00,weatherlink.com 1.10,2013-08-09 17:14:00,
2013-08-09 13:29:00,84.0,76.0,29.77,South,188,0.0,4.0,77,0.00,,,0.00,weatherlink.com 1.10,2013-08-09 17:29:00,
2013-08-09 13:44:00,84.2,77.0,29.77,ENE,69,0.0,3.0,78,0.00,,,0.00,weatherlink.com 1.10,2013-08-09 17:44:00,
2013-08-09 13:59:00,84.4,76.0,29.77,West,271,0.0,3.0,76,0.00,,,0.00,weatherlink.com 1.10,2013-08-09 17:59:00,
2013-08-09 14:14:00,84.1,76.0,29.77,WSW,252,0.0,2.0,76,0.00,,,0.00,weatherlink.com 1.10,2013-08-09 18:14:00,
2013-08-09 14:29:00,84.2,76.0,29.77,West,269,0.0,4.0,77,0.00,,,0.00,weatherlink.com 1.10,2013-08-09 18:29:00,
2013-08-09 14:44:00,84.4,76.0,29.77,SSW,211,1.0,6.0,76,0.00,,,0.00,weatherlink.com 1.10,2013-08-09 18:44:00,
2013-08-09 14:59:00,85.3,77.0,29.76,West,267,0.0,2.0,75,0.00,,,0.00,weatherlink.com 1.10,2013-08-09 18:59:00,
2013-08-09 15:14:00,85.2,77.0,29.76,SW,219,1.0,4.0,75,0.00,,,0.00,weatherlink.com 1.10,2013-08-09 19:14:00,
2013-08-09 15:29:00,85.5,76.0,29.76,NW,325,0.0,7.0,74,0.00,,,0.00,weatherlink.com 1.10,2013-08-09 19:29:00,
2013-08-09 15:44:00,85.0,77.0,29.75,West,278,0.0,2.0,76,0.00,,,0.00,weatherlink.com 1.10,2013-08-09 19:44:00,
2013-08-09 15:59:00,84.3,77.0,29.76,West,276,0.0,2.0,79,0.00,,,0.00,weatherlink.com 1.10,2013-08-09 19:59:00,
2013-08-09 16:14:00,83.9,78.0,29.75,WNW,284,0.0,2.0,81,0.00,,,0.00,weatherlink.com 1.10,2013-08-09 20:14:00,
2013-08-09 16:29:00,84.0,77.0,29.75,West,281,0.0,3.0,78,0.00,,,0.00,weatherlink.com 1.10,2013-08-09 20:29:00,
2013-08-09 16:44:00,84.1,76.0,29.75,SSW,207,0.0,6.0,76,0.00,,,0.00,weatherlink.com 1.10,2013-08-09 20:44:00,
2013-08-09 16:59:00,84.0,75.0,29.76,West,264,0.0,6.0,75,0.00,,,0.00,weatherlink.com 1.10,2013-08-09 20:59:00,
2013-08-09 17:15:00,84.1,76.0,29.76,South,178,1.0,3.0,77,0.00,,,0.00,weatherlink.com 1.10,2013-08-09 21:15:00,
2013-08-09 17:30:00,83.8,75.0,29.75,NE,36,0.0,3.0,75,0.00,,,0.00,weatherlink.com 1.10,2013-08-09 21:30:00,
2013-08-09 17:45:00,83.4,75.0,29.76,SW,219,0.0,2.0,76,0.00,,,0.00,weatherlink.com 1.10,2013-08-09 21:45:00,
2013-08-09 18:00:00,83.2,75.0,29.75,West,277,0.0,2.0,76,0.00,,,0.00,weatherlink.com 1.10,2013-08-09 22:00:00,
2013-08-09 18:15:00,82.8,75.0,29.76,West,277,0.0,1.0,78,0.00,,,0.00,weatherlink.com 1.10,2013-08-09 22:15:00,
2013-08-09 18:30:00,82.1,75.0,29.76,West,271,0.0,1.0,80,0.01,,,0.01,weatherlink.com 1.10,2013-08-09 22:30:00,
2013-08-09 18:45:00,81.1,76.0,29.77,West,275,0.0,1.0,83,0.02,,,0.02,weatherlink.com 1.10,2013-08-09 22:45:00,
2013-08-09 19:00:00,80.0,76.0,29.78,West,275,0.0,0.0,87,0.03,,,0.03,weatherlink.com 1.10,2013-08-09 23:00:00,
2013-08-09 19:15:00,79.0,76.0,29.78,West,275,0.0,1.0,89,0.03,,,0.03,weatherlink.com 1.10,2013-08-09 23:15:00,
2013-08-09 19:30:00,78.3,76.0,29.78,WSW,245,0.0,1.0,91,0.02,,,0.03,weatherlink.com 1.10,2013-08-09 23:30:00,
2013-08-09 19:45:00,77.9,76.0,29.78,WSW,245,0.0,1.0,92,0.01,,,0.03,weatherlink.com 1.10,2013-08-09 23:45:00,
2013-08-09 20:00:00,77.5,75.0,29.78,WSW,245,0.0,1.0,93,0.00,,,0.03,weatherlink.com 1.10,2013-08-10 00:00:00,
2013-08-09 20:15:00,77.3,75.0,29.78,West,277,0.0,1.0,93,0.00,,,0.03,weatherlink.com 1.10,2013-08-10 00:15:00,
2013-08-09 20:30:00,77.1,75.0,29.77,West,277,0.0,0.0,94,0.00,,,0.03,weatherlink.com 1.10,2013-08-10 00:30:00,
2013-08-09 20:45:00,76.8,75.0,29.77,West,277,0.0,0.0,94,0.00,,,0.03,weatherlink.com 1.10,2013-08-10 00:45:00,
2013-08-09 21:00:00,76.6,75.0,29.78,West,277,0.0,0.0,95,0.00,,,0.03,weatherlink.com 1.10,2013-08-10 01:00:00,
2013-08-09 21:15:00,76.2,75.0,29.79,West,277,0.0,0.0,95,0.00,,,0.03,weatherlink.com 1.10,2013-08-10 01:15:00,
2013-08-09 21:30:00,75.8,74.0,29.80,West,277,0.0,1.0,95,0.00,,,0.03,weatherlink.com 1.10,2013-08-10 01:30:00,
2013-08-09 21:45:00,75.5,74.0,29.81,West,277,0.0,0.0,95,0.00,,,0.03,weatherlink.com 1.10,2013-08-10 01:45:00,
2013-08-09 22:00:00,75.2,74.0,29.81,WNW,284,0.0,2.0,95,0.00,,,0.03,weatherlink.com 1.10,2013-08-10 02:00:00,
2013-08-09 22:15:00,75.1,74.0,29.81,WNW,287,0.0,2.0,95,0.00,,,0.03,weatherlink.com 1.10,2013-08-10 02:15:00,
2013-08-09 22:30:00,75.0,74.0,29.81,WNW,293,2.0,2.0,95,0.00,,,0.03,weatherlink.com 1.10,2013-08-10 02:30:00,
2013-08-09 22:45:00,75.0,74.0,29.81,WNW,294,0.0,5.0,96,0.00,,,0.03,weatherlink.com 1.10,2013-08-10 02:45:00,
2013-08-09 23:00:00,74.9,73.0,29.80,NW,304,0.0,2.0,95,0.00,,,0.03,weatherlink.com 1.10,2013-08-10 03:00:00,
2013-08-09 23:15:00,74.8,73.0,29.81,NW,304,0.0,0.0,95,0.00,,,0.03,weatherlink.com 1.10,2013-08-10 03:15:00,
2013-08-09 23:30:00,74.6,73.0,29.81,NW,304,0.0,1.0,96,0.00,,,0.03,weatherlink.com 1.10,2013-08-10 03:30:00,
2013-08-09 23:45:00,74.6,73.0,29.81,NW,304,1.0,1.0,96,0.01,,,0.04,weatherlink.com 1.10,2013-08-10 03:45:00,